Regional Weather Roundup
Issued by NWS

Home | Current Version | Previous Version | Text Only | Print | Product List | Glossary Off
Versions: 1 2 3 4 5 6 7 8 9 10 11 12 13 14 15 16 17 18 19 20 21 22 23 24 25 26 27 28 29 30 31 32 33 34 35 36 37 38 39 40 41 42 43 44 45 46 47 48 49 50

000
ASUS43 KIND 200959
RWRIN

WEATHER ROUNDUP FOR INDIANA
NATIONAL WEATHER SERVICE INDIANAPOLIS IN
500 AM EST MON FEB 20 2017

NOTE: "FAIR" INDICATES FEW OR NO CLOUDS BELOW 12,000 FEET WITH NO
SIGNIFICANT WEATHER AND/OR OBSTRUCTIONS TO VISIBILITY.

* - STATION DOES NOT REPORT WEATHER SUCH AS PRECIPITATION OR FOG.

+ - STATION NOT QUALITY CONTROLLED BY THE NATIONAL WEATHER SERVICE.
    USE DATA WITH CAUTION...ESPECIALLY DEWPOINT AND RELATIVE
    HUMIDITY OBSERVATIONS.

INZ001>003-010>013-019-020-201100-
NORTHWEST INDIANA

CITY           SKY/WX    TMP DP  RH WIND       PRES   REMARKS
KNOX *+        CLOUDY    37  23  56 SE5       30.16R
MICHIGAN CITY+ CLOUDY    41  34  75 SE3       30.15S
MONTICELLO +   PTCLDY    39  38  96 CALM      30.15S FOG
RENSSELAER +     N/A     37  37 100 SE5       30.14F FOG

$$

LMZ046-743>745-201100-
SOUTHERN LAKE MICHIGAN

STATION/POSITION TIME  TEMP    WIND        PRES    WAVE
                       AIR SEA DIR/SP/G            HT
                 (UTC) (F)     (DEG/KT/KT) (MB)    (FT)
BURNS HARBOR     0940   51     130/  5/  8 1021.0S
MICHIGAN CITY    0930   48     110/  9/ 10   N/A

$$

INZ004-005-014>016-021>024-201100-
NORTH CENTRAL INDIANA

CITY           SKY/WX    TMP DP  RH WIND       PRES   REMARKS
GOSHEN         CLOUDY    35  30  82 CALM      30.17S
PERU/GRISSOM   CLOUDY    37  37 100 E3        30.15S FOG
SOUTH BEND     CLOUDY    39  28  64 E3        30.17S
WARSAW +       CLOUDY    34  32  93 CALM      30.17S

$$

INZ006>009-017-018-025>027-201100-
NORTHEAST INDIANA

CITY           SKY/WX    TMP DP  RH WIND       PRES   REMARKS
ANGOLA *+      CLEAR     36  32  87 CALM      30.18R
FORT WAYNE     CLOUDY    36  32  85 CALM      30.18R
KENDALLVILLE + PTCLDY    43  29  58 SE3       30.18R

$$

INZ028-029-035-036-043>045-051>053-201100-
WEST CENTRAL INDIANA

CITY           SKY/WX    TMP DP  RH WIND       PRES   REMARKS
LAFAYETTE      CLOUDY    37  37 100 E5        30.15S FOG
TERRE HAUTE    FOG       42  41  96 CALM      30.14R VSB 1/4

$$

INZ030>032-037>040-046>048-054>057-064-065-201100-
CENTRAL INDIANA

CITY           SKY/WX    TMP DP  RH WIND       PRES   REMARKS
CP ATTERBURY + CLOUDY    37  37 100 CALM      30.18R VSB<1/4
FRANKFORT +    FOG       41  41  97 SE6       30.18R VSB 1/2
GREENWOOD *+   CLOUDY    42  42 100 SE3       30.18R VSB 1/4
INDIANAPOLIS   FOG       42  42 100 E6        30.17R VSB 1/8
-EAGLE CREEK   CLOUDY    41  39  93 CALM      30.17R FOG
KOKOMO +       FOG       38  38 100 SE6       30.18R VSB 1/4
MT COMFORT *+  CLOUDY    39  39 100 CALM      30.19R VSB<1/4
SHELBYVILLE    FOG       38  36  92 E5        30.18R VSB 1/4

$$

INZ033-034-041-042-049-050-058-059-201100-
EAST CENTRAL INDIANA

CITY           SKY/WX    TMP DP  RH WIND       PRES   REMARKS
MUNCIE         CLOUDY    39  37  92 CALM      30.18R FOG

$$

INZ060-061-067>069-081>083-085>088-201100-
SOUTHWEST INDIANA

CITY           SKY/WX    TMP DP  RH WIND       PRES   REMARKS
EVANSVILLE     FOG       43  41  93 NE3       30.15R VSB 1/4
HUNTINGBURG *+ FOG       43  42  97 CALM      30.15S VSB 1/4

$$

INZ062-063-066-070>080-084-089>092-201100-
SOUTH CENTRAL AND SOUTHEAST INDIANA

CITY           SKY/WX    TMP DP  RH WIND       PRES   REMARKS
BLOOMINGTON    FOG       43  42  97 SE5       30.15R VSB 1/4
MADISON *+     CLOUDY    36  36 100 CALM      30.21R VSB 1/4
SEYMOUR +      FOG       41  41 100 CALM      30.18  VSB<1/4

$$





USA.gov is the U.S. government's official web portal to all federal, state and local government web resources and services.